Overview Statistics Trail Chart Weather Telemetry Raw packets
 

This is the latest recevied weather packets stored in our database for station/object N3TJJ-2. If no packets are shown the sender has not sent any weather packets the latest 10 day(s).

<< 55 56 57 58 59 60 61 >>
Time Temp. Humidity Pressure Rain* Wind** Luminosity Snow
1788142007 21.11° C 27% 1020.9 hPa 23.11 mm - - -
1788141651 21.11° C 28% 1021 hPa 24.38 mm - - -
1788141317 21.11° C 29% 1020.8 hPa 24.38 mm - - -
1788140965 20.56° C 32% 1020.9 hPa 23.62 mm - - -
1788140655 20.56° C 36% 1020.9 hPa 23.62 mm - - -
1788140264 20.56° C 49% 1021.1 hPa 18.29 mm - - -
1788139852 21.11° C 45% 1021.1 hPa 10.92 mm - - -
1788139491 21.11° C 45% 1021.1 hPa 6.1 mm - - -
1788139131 21.11° C 44% 1020.6 hPa 3.81 mm - - -
1788138772 21.11° C 47% 1020.5 hPa 3.81 mm - - -
1788138408 21.11° C 49% 1020.6 hPa 3.3 mm - - -
1788138045 22.22° C 41% 1020.6 hPa 1.78 mm - - -
1788137704 22.22° C 39% 1020.4 hPa 1.27 mm - - -
1788137326 22.22° C 40% 1020.3 hPa 2.03 mm - - -
1788136976 22.22° C 41% 1020.3 hPa 2.54 mm - - -
1788136613 22.22° C 42% 1020 hPa 2.54 mm - - -
1788136245 22.22° C 42% 1019.9 hPa 2.54 mm - - -
1788135885 22.22° C 45% 1019.9 hPa 2.54 mm - - -
1788135536 22.22° C 49% 1019.8 hPa 2.54 mm - - -
1788135178 22.78° C 52% 1019.7 hPa 2.54 mm - - -
1788134814 22.78° C 53% 1019.7 hPa 2.54 mm - - -
1788134451 23.33° C 57% 1019.7 hPa 2.54 mm - - -
1788134119 23.89° C 64% 1019.9 hPa 2.29 mm - - -
1788133730 25° C 69% 1019.7 hPa 1.02 mm - - -
1788133394 25.56° C 74% 1019.6 hPa 0 mm - - -

* Rain latest hour (hover to see other rain measurements)
** Current wind speed in m/s (hover to see current wind gust speed)